User: anonymous   Login
Location: Oshawa
(43.9000°N, 78.8670°W)
Time: 15:26:14
(UTC-04:00)
Language:

Envisat - Orbit

View from above orbital plane
View from above orbital plane
View from above satellite
View from above satellite

Ground track
Ground track

The orbit data is extracted from the following two-line orbital elements,

1 27386U 02009A   15212.27627602 -.00000009  00000-0  10911-4 0  9996
2 27386 098.3302 271.3793 0001083 084.2146 275.9165 14.37826252702365
Epoch (UTC): 31 July 2015 06:37:50
Eccentricity: 0.0001083
inclination: 98.3302°
perigee height: 765 km
apogee height: 766 km
right ascension of ascending node: 271.3793°
argument of perigee: 84.2146°
revolutions per day: 14.37826252
mean anomaly at epoch: 275.9165°
orbit number at epoch: 70236

The dashed part of the orbit path shows where the satellite is in the earth's shadow,  

DLR